Location: Bachas
(43.2439°N, 0.9375°E)
Time: 19:57:48
(UTC+00:00)

Cosmos 921 Rocket - Pass Details

Date: 18 February 2020
Orbit: 572 x 631 km, 75.8° (Epoch: 30 March)

Event Time Altitude Azimuth Distance (km) Brightness Sun altitude
Rises 05:54:40 0° 336° (NNW) 2,907 6.2 -10.9°
Reaches altitude 10° 05:57:00 10° 330° (NNW) 1,988 5.3 -10.4°
Maximum altitude 06:01:14 45° 258° (WSW) 830 3.3 -9.7°
Drops below altitude 10° 06:05:21 10° 186° (S) 1,938 5.6 -8.9°
Sets 06:07:37 0° 180° (S) 2,825 6.6 -8.5°
